Tracking 18942 objects as of 16-Jan-2018
HD Live streaming from Space Station
objects crossing your sky now

COSMOS 407

Track COSMOS 407 now!
10-day predictions
COSMOS 407 is classified as:


NORAD ID: 5174
Int'l Code: 1971-035A
Perigee: 774.7 km
Apogee: 801.6 km
Inclination: 74.0 °
Period: 100.5 minutes
Semi major axis: 7159 km
RCS: 2.2662 m2 (large)
Launch date: April 23, 1971
Source: Commonwealth of Independent States (former USSR) (CIS)
Launch site: PLESETSK MISSILE AND SPACE COMPLEX (PKMTR)
aabbcc
Your satellite tracking list
Your tracking list is empty




NASA's NSSDC Master Catalog

Two Line Element Set (TLE):
1  5174U 71035A   18015.87950052 -.00000008 +00000-0 +65027-5 0  9998
2  5174 074.0457 328.8095 0018781 187.1113 172.9775 14.33223406440057
Source of the keplerian elements: AFSPC